Flag for Morocco Weather past 2 weeks in Marrakech, Morocco

Now
81 °F

Partly sunny.


Feels Like: 84 °F
Forecast: 74 / 111 °F
Wind: 5 mph from West

Location: Marrakech Airport

Current Time: Aug 5, 2015 at 11:49:10 AM

Latest Report: Aug 5, 2015 at 11:00 AM


Visibility: N/A

Pressure: 29.98 "Hg

Humidity: 70%

Dew point: 70 °F

Location of MarrakechLocation

Historic Weather in Marrakech — Graph

°F

Marrakech temperature yesterday

Maximum temperature yesterday: 97 °F (at 6:00 PM)
Minimum temperature yesterday: 68 °F (at 7:00 AM)
Average temperature yesterday: 83 °F

Past Weeks' High & Low Weather Summary

 TemperatureHumidityPressure
High115 °F (Jul 22, 5:00 PM)100% (Aug 3, 7:00 AM)30.07 "Hg (Aug 3, 7:00 AM)
Low64 °F (Aug 3, 6:30 AM)8% (Jul 21, 5:00 PM)29.80 "Hg (Aug 1, 5:00 PM)
Average86 °F49%29.97 "Hg
* Reported Jul 21 11:00 AM — Aug 5 11:00 AM, Marrakech, Weather by CustomWeather, © 2015

Note: Actual official high and low records may vary slightly from our data, if they occured in-between our weather recording intervals... More about our weather records

Advertising

Marrakech weather history for previous 24 hours

 ConditionsComfort  
Time TempWeatherWind HumidityBarometerVisibility
11:00 AM
Wed, Aug 5
81 °FPartly sunny.5 mph70%29.98 "HgN/A
10:00 AM77 °FPartly sunny.5 mph79%29.95 "HgN/A
9:30 AM77 °FPartly sunny.6 mph74%29.95 "HgN/A
9:00 AM75 °FMild.5 mph78%29.98 "HgN/A
8:30 AM75 °FMild.6 mph78%29.95 "HgN/A
8:00 AM73 °FScattered clouds.7 mph83%29.95 "HgN/A
7:30 AM73 °FScattered clouds.7 mph83%29.95 "HgN/A
7:00 AM73 °FPartly sunny.7 mph83%29.95 "Hg5 mi
6:30 AM75 °FClear.7 mph78%29.92 "Hg10 mi
6:00 AM75 °FPassing clouds.8 mph78%29.92 "HgN/A
5:30 AM77 °FPassing clouds.10 mph69%29.92 "HgN/A
5:00 AM77 °FPassing clouds.7 mph69%29.92 "HgN/A
4:00 AM77 °FPassing clouds.6 mph74%29.92 "HgN/A
3:30 AM79 °FPassing clouds.5 mph70%29.92 "HgN/A
3:00 AM79 °FPassing clouds.5 mph65%29.92 "HgN/A
2:30 AM81 °FPassing clouds.5 mph62%29.92 "HgN/A
2:00 AM82 °FPassing clouds.5 mph58%29.95 "HgN/A
1:30 AM86 °FPassing clouds.3 mph55%29.95 "HgN/A
1:00 AM86 °FPassing clouds.8 mph52%29.95 "HgN/A
12:30 AM86 °FPassing clouds.7 mph52%29.95 "HgN/A
12:00 AM86 °FPassing clouds.3 mph52%29.95 "HgN/A
11:30 PM
Tue, Aug 4
88 °FPassing clouds.3 mph49%29.95 "HgN/A
11:00 PM88 °FPassing clouds.7 mph49%29.95 "HgN/A
10:00 PM90 °FPassing clouds.5 mph43%29.95 "HgN/A
9:30 PM91 °FPassing clouds.6 mph41%29.95 "HgN/A
9:00 PM93 °FPassing clouds.6 mph39%29.95 "HgN/A
8:30 PM93 °FPassing clouds.3 mph39%29.95 "HgN/A
8:00 PM95 °FScattered clouds.7 mph36%29.95 "HgN/A
7:30 PM95 °FScattered clouds.8 mph34%29.92 "HgN/A
7:00 PM95 °FScattered clouds.5 mph34%29.95 "HgN/A
6:30 PM95 °FScattered clouds.10 mph36%29.95 "HgN/A
6:00 PM97 °FScattered clouds.13 mph37%29.95 "HgN/A
5:30 PM95 °FScattered clouds.5 mph36%29.95 "HgN/A
5:00 PM95 °FScattered clouds.8 mph39%29.95 "HgN/A
4:30 PM95 °FScattered clouds.2 mph36%29.95 "HgN/A
4:00 PM95 °FScattered clouds.2 mph36%29.98 "HgN/A
3:30 PM93 °FPassing clouds.5 mph41%29.95 "HgN/A
3:00 PM93 °FPassing clouds.5 mph41%29.98 "HgN/A
2:30 PM93 °FPassing clouds.6 mph44%29.98 "HgN/A
2:00 PM91 °FPassing clouds.5 mph44%29.98 "HgN/A
1:30 PM91 °FPassing clouds.6 mph44%29.98 "HgN/A
1:00 PM88 °FPassing clouds.5 mph49%30.01 "HgN/A
12:30 PM88 °FPassing clouds.7 mph49%30.01 "HgN/A
12:00 PM84 °FPassing clouds.7 mph55%30.01 "HgN/A
11:30 AM82 °FPassing clouds.8 mph58%30.04 "HgN/A
11:00 AM79 °FPassing clouds.6 mph65%30.04 "HgN/A
Weather by CustomWeather, © 2015

See weather overviewHow to use our weather pages